AAL8850 KEWR-KCLT

Flight info

Callsign AAL8850
Flight time N/A
Altitude 38000
Route BIGGY Q75 GVE AIROW CHSLY6
Aircraft A20N/M-SDE2E3FGHIRWXY/LB1

Departure

Time 2026-04-20 12:55
Airport Newark Liberty International Airport (KEWR)

Arrival

Time N/A
Airport Charlotte Douglas International Airport (KCLT)
Time Latitude Longitude Altitude Speed Heading
2026-04-20 12:09 40.68303 -74.18411 22 ft 0 kts
2026-04-20 12:42 40.68296 -74.18411 26 ft 4 kts
2026-04-20 12:42 40.68270 -74.18420 22 ft 4 kts 30°
2026-04-20 12:42 40.68251 -74.18442 26 ft 4 kts 68°
2026-04-20 12:42 40.68248 -74.18464 25 ft 1 kts 95°
2026-04-20 12:47 40.68247 -74.18455 25 ft 3 kts 95°
2026-04-20 12:47 40.68242 -74.18375 22 ft 12 kts 95°
2026-04-20 12:47 40.68234 -74.18246 22 ft 15 kts 95°
2026-04-20 12:47 40.68238 -74.18106 22 ft 16 kts 89°
2026-04-20 12:48 40.68225 -74.17968 24 ft 14 kts 110°
2026-04-20 12:48 40.68184 -74.17855 22 ft 13 kts 115°
2026-04-20 12:48 40.68148 -74.17751 22 ft 11 kts 101°
2026-04-20 12:48 40.68204 -74.17684 21 ft 13 kts 24°
2026-04-20 12:49 40.68293 -74.17627 22 ft 15 kts 26°
2026-04-20 12:49 40.68396 -74.17560 22 ft 17 kts 26°
2026-04-20 12:49 40.68512 -74.17486 22 ft 20 kts 25°
2026-04-20 12:49 40.68640 -74.17405 24 ft 21 kts 26°
2026-04-20 12:50 40.68780 -74.17316 22 ft 23 kts 26°
2026-04-20 12:50 40.68932 -74.17220 23 ft 25 kts 25°
2026-04-20 12:50 40.69095 -74.17117 21 ft 27 kts 26°
2026-04-20 12:50 40.69264 -74.17009 21 ft 28 kts 26°
2026-04-20 12:51 40.69441 -74.16895 22 ft 28 kts 26°
2026-04-20 12:51 40.69621 -74.16781 22 ft 29 kts 26°
2026-04-20 12:51 40.69808 -74.16663 21 ft 29 kts 27°
2026-04-20 12:51 40.69926 -74.16590 21 ft 16 kts 25°
2026-04-20 12:52 40.70027 -74.16524 22 ft 12 kts 26°
2026-04-20 12:52 40.70063 -74.16494 20 ft 5 kts 59°
2026-04-20 12:52 40.70064 -74.16471 20 ft 0 kts 91°
2026-04-20 12:53 40.70064 -74.16435 20 ft 7 kts 91°
2026-04-20 12:53 40.70031 -74.16370 19 ft 11 kts 152°
2026-04-20 12:54 40.69991 -74.16383 19 ft 0 kts 194°
2026-04-20 12:54 40.69973 -74.16399 19 ft 7 kts 213°
2026-04-20 12:54 40.69916 -74.16433 20 ft 10 kts 205°
2026-04-20 12:54 40.69773 -74.16525 20 ft 51 kts 206°
2026-04-20 12:55 40.69252 -74.16856 22 ft 113 kts 206°
2026-04-20 12:55 40.68395 -74.17399 26 ft 159 kts 206°
2026-04-20 12:55 40.67359 -74.18062 419 ft 171 kts 207°
2026-04-20 12:55 40.66229 -74.18582 1220 ft 172 kts 195°
2026-04-20 12:56 40.65050 -74.18843 1897 ft 181 kts 190°
2026-04-20 12:56 40.63731 -74.19036 2184 ft 204 kts 190°
2026-04-20 12:56 40.62383 -74.19652 2264 ft 213 kts 220°
2026-04-20 12:56 40.61507 -74.21182 2412 ft 212 kts 248°
2026-04-20 12:57 40.60950 -74.23044 2798 ft 226 kts 250°
2026-04-20 12:57 40.60373 -74.25075 3215 ft 244 kts 252°
2026-04-20 12:57 40.59828 -74.27195 3616 ft 245 kts 253°
2026-04-20 12:57 40.59307 -74.29330 4005 ft 246 kts 253°
2026-04-20 12:58 40.58782 -74.31477 4397 ft 246 kts 253°
2026-04-20 12:58 40.58246 -74.33641 4976 ft 251 kts 253°
2026-04-20 12:58 40.57711 -74.35771 6103 ft 246 kts 252°
2026-04-20 12:58 40.57170 -74.37901 7132 ft 246 kts 252°
2026-04-20 12:59 40.56625 -74.40045 8092 ft 248 kts 252°
2026-04-20 12:59 40.56077 -74.42203 9034 ft 250 kts 253°
2026-04-20 12:59 40.55524 -74.44380 10016 ft 252 kts 253°
2026-04-20 12:59 40.54957 -74.46616 10599 ft 267 kts 252°
2026-04-20 13:00 40.54346 -74.49031 10921 ft 289 kts 252°
2026-04-20 13:00 40.53693 -74.51606 11457 ft 301 kts 252°
2026-04-20 13:00 40.53025 -74.54231 12296 ft 304 kts 252°
2026-04-20 13:00 40.52352 -74.56873 13139 ft 307 kts 251°
2026-04-20 13:01 40.51680 -74.59506 13972 ft 309 kts 251°
2026-04-20 13:01 40.50992 -74.62195 14711 ft 311 kts 251°
2026-04-20 13:01 40.50301 -74.64896 15502 ft 312 kts 252°
2026-04-20 13:01 40.49607 -74.67603 16271 ft 313 kts 252°
2026-04-20 13:02 40.48910 -74.70322 17033 ft 315 kts 252°
2026-04-20 13:02 40.48209 -74.73055 17764 ft 317 kts 252°
2026-04-20 13:02 40.47502 -74.75807 18519 ft 319 kts 252°
2026-04-20 13:02 40.46789 -74.78578 19171 ft 320 kts 252°
2026-04-20 13:03 40.46076 -74.81351 19811 ft 322 kts 252°
2026-04-20 13:03 40.45367 -74.84106 20422 ft 324 kts 251°
2026-04-20 13:03 40.44644 -74.86910 21046 ft 325 kts 251°
2026-04-20 13:03 40.43915 -74.89733 21661 ft 327 kts 251°
2026-04-20 13:04 40.43180 -74.92574 22245 ft 330 kts 251°
2026-04-20 13:04 40.42312 -74.95365 22829 ft 332 kts 244°
2026-04-20 13:04 40.41155 -74.98002 23429 ft 335 kts 237°
2026-04-20 13:04 40.39727 -75.00438 23964 ft 339 kts 231°
2026-04-20 13:05 40.38109 -75.02699 24433 ft 341 kts 230°
2026-04-20 13:05 40.36483 -75.04968 24915 ft 342 kts 230°
2026-04-20 13:05 40.34875 -75.07226 25304 ft 344 kts 231°
2026-04-20 13:05 40.33242 -75.09524 25671 ft 345 kts 231°
2026-04-20 13:06 40.31598 -75.11833 26052 ft 348 kts 231°
2026-04-20 13:06 40.29945 -75.14152 26430 ft 349 kts 231°
2026-04-20 13:06 40.28278 -75.16484 26811 ft 351 kts 231°
2026-04-20 13:06 40.26607 -75.18819 27202 ft 353 kts 231°
2026-04-20 13:07 40.24924 -75.21169 27597 ft 354 kts 231°
2026-04-20 13:07 40.23233 -75.23525 28007 ft 356 kts 231°
2026-04-20 13:07 40.21533 -75.25891 28420 ft 357 kts 231°
2026-04-20 13:07 40.19853 -75.28230 28826 ft 358 kts 231°
2026-04-20 13:08 40.18145 -75.30607 29242 ft 359 kts 232°
2026-04-20 13:08 40.16461 -75.32949 29658 ft 359 kts 232°
2026-04-20 13:08 40.14754 -75.35323 30077 ft 359 kts 232°
2026-04-20 13:08 40.13042 -75.37700 30485 ft 359 kts 232°
2026-04-20 13:09 40.11332 -75.40076 30832 ft 359 kts 232°
2026-04-20 13:09 40.09620 -75.42452 31187 ft 359 kts 232°
2026-04-20 13:09 40.07907 -75.44828 31551 ft 359 kts 232°
2026-04-20 13:09 40.06195 -75.47201 31921 ft 359 kts 232°
2026-04-20 13:10 40.04506 -75.49540 32280 ft 359 kts 232°
2026-04-20 13:10 40.02792 -75.51911 32655 ft 358 kts 232°
2026-04-20 13:10 40.01084 -75.54270 33036 ft 357 kts 232°
2026-04-20 13:10 39.99383 -75.56619 33418 ft 355 kts 233°
2026-04-20 13:11 39.97690 -75.58953 33804 ft 353 kts 233°
2026-04-20 13:11 39.96009 -75.61271 34196 ft 350 kts 233°
2026-04-20 13:11 39.94340 -75.63569 34527 ft 347 kts 233°
2026-04-20 13:11 39.92691 -75.65839 34856 ft 343 kts 232°
2026-04-20 13:12 39.91113 -75.68134 35089 ft 339 kts 236°
2026-04-20 13:12 39.89648 -75.70500 35198 ft 341 kts 236°
2026-04-20 13:12 39.88147 -75.72920 35208 ft 346 kts 236°
2026-04-20 13:13 39.85079 -75.77845 35287 ft 355 kts 236°
2026-04-20 13:13 39.81921 -75.82888 35353 ft 364 kts 236°
2026-04-20 13:14 39.78692 -75.88038 35421 ft 373 kts 236°
2026-04-20 13:14 39.75386 -75.93298 35494 ft 383 kts 236°
2026-04-20 13:15 39.71975 -75.98717 35567 ft 392 kts 235°
2026-04-20 13:15 39.68480 -76.04261 35648 ft 401 kts 235°
2026-04-20 13:16 39.64940 -76.09865 35781 ft 407 kts 235°
2026-04-20 13:16 39.63140 -76.12709 35918 ft 409 kts 235°
2026-04-20 13:16 39.61355 -76.15529 35992 ft 412 kts 235°
2026-04-20 13:16 39.59563 -76.18355 36122 ft 413 kts 234°
2026-04-20 13:17 39.57718 -76.21217 36224 ft 415 kts 234°
2026-04-20 13:17 39.53989 -76.26934 36235 ft 412 kts 234°
2026-04-20 13:18 39.50297 -76.32593 36238 ft 412 kts 234°
2026-04-20 13:18 39.46594 -76.38248 36254 ft 412 kts 233°
2026-04-20 13:19 39.42608 -76.43541 36255 ft 414 kts 230°
2026-04-20 13:19 39.38565 -76.48824 36256 ft 413 kts 230°
2026-04-20 13:20 39.34522 -76.54110 36256 ft 413 kts 231°
2026-04-20 13:20 39.30508 -76.59345 36253 ft 413 kts 231°
2026-04-20 13:21 39.26495 -76.64570 36227 ft 413 kts 231°
2026-04-20 13:21 39.22456 -76.69819 36227 ft 412 kts 231°
2026-04-20 13:22 39.18413 -76.75064 36229 ft 412 kts 231°
2026-04-20 13:22 39.14373 -76.80297 36230 ft 412 kts 231°
2026-04-20 13:23 39.10354 -76.85493 36256 ft 412 kts 231°
2026-04-20 13:23 39.06311 -76.90711 36257 ft 412 kts 231°
2026-04-20 13:24 39.02266 -76.95923 36262 ft 411 kts 231°
2026-04-20 13:24 38.98222 -77.01127 36256 ft 411 kts 231°
2026-04-20 13:25 38.94183 -77.06325 36252 ft 411 kts 231°
2026-04-20 13:25 38.90170 -77.11483 36245 ft 411 kts 231°
2026-04-20 13:26 38.86125 -77.16670 36250 ft 411 kts 231°
2026-04-20 13:26 38.82083 -77.21847 36221 ft 411 kts 231°
2026-04-20 13:27 38.78033 -77.27024 36222 ft 411 kts 231°
2026-04-20 13:27 38.74012 -77.32154 36224 ft 411 kts 231°
2026-04-20 13:28 38.69862 -77.37206 36257 ft 413 kts 229°
2026-04-20 13:28 38.65600 -77.42042 36257 ft 413 kts 229°
2026-04-20 13:29 38.61318 -77.46941 36260 ft 413 kts 229°
2026-04-20 13:29 38.57051 -77.51852 36258 ft 413 kts 229°
2026-04-20 13:30 38.52819 -77.56723 36261 ft 412 kts 229°
2026-04-20 13:30 38.48552 -77.61624 36262 ft 412 kts 229°
2026-04-20 13:31 38.44285 -77.66518 36261 ft 412 kts 229°
2026-04-20 13:31 38.40016 -77.71404 36272 ft 412 kts 229°
2026-04-20 13:32 38.35776 -77.76248 36138 ft 411 kts 227°
2026-04-20 13:32 38.33755 -77.78966 33717 ft 439 kts 233°
2026-04-20 13:32 38.31618 -77.81684 32397 ft 430 kts 232°
2026-04-20 13:32 38.29500 -77.84192 32158 ft 407 kts 229°
2026-04-20 13:33 38.27633 -77.86328 34352 ft 333 kts 226°
2026-04-20 13:33 38.25826 -77.88020 35084 ft 310 kts 237°
2026-04-20 13:33 38.24621 -77.90188 34382 ft 301 kts 258°
2026-04-20 13:33 38.24038 -77.92802 32141 ft 320 kts 257°
2026-04-20 13:34 38.23592 -77.95747 30631 ft 373 kts 267°
2026-04-20 13:34 38.23560 -77.99074 30348 ft 373 kts 283°
2026-04-20 13:34 38.24848 -78.02003 28668 ft 398 kts 313°
2026-04-20 13:34 38.26847 -78.04151 29452 ft 340 kts 326°
2026-04-20 13:35 38.28588 -78.05501 29153 ft 356 kts 337°
2026-04-20 13:35 38.30491 -78.06712 27102 ft 417 kts 332°
2026-04-20 13:35 38.33208 -78.08621 25935 ft 457 kts 332°
2026-04-20 13:35 38.36089 -78.10498 25179 ft 476 kts 337°
2026-04-20 13:36 38.38909 -78.11325 28662 ft 371 kts 358°
2026-04-20 13:36 38.40491 -78.11183 30818 ft 319 kts 13°
2026-04-20 13:36 38.42869 -78.09832 32963 ft 275 kts 44°
2026-04-20 13:36 38.43980 -78.07725 31806 ft 314 kts 77°
2026-04-20 13:37 38.43950 -78.04728 30381 ft 367 kts 104°
2026-04-20 13:37 38.43290 -78.01560 30785 ft 353 kts 105°
2026-04-20 13:37 38.42560 -77.98442 29856 ft 391 kts 111°
2026-04-20 13:37 38.41881 -77.96200 29282 ft 435 kts 118°
2026-04-20 13:38 38.39942 -77.92940 26062 ft 495 kts 148°
2026-04-20 13:38 38.36874 -77.90357 24426 ft 547 kts 155°
2026-04-20 13:38 38.33604 -77.87724 23824 ft 561 kts 155°
2026-04-20 13:38 38.29296 -77.84433 24331 ft 539 kts 163°
2026-04-20 13:39 38.25916 -77.82859 24859 ft 499 kts 171°
2026-04-20 13:39 38.22571 -77.81593 22889 ft 509 kts 176°
2026-04-20 13:39 38.19182 -77.80737 22273 ft 480 kts 181°
2026-04-20 13:39 38.17061 -77.80615 21970 ft 445 kts 196°
2026-04-20 13:40 38.14383 -77.80533 24650 ft 354 kts 165°
2026-04-20 13:40 38.12694 -77.78718 27143 ft 299 kts 136°
2026-04-20 13:40 38.11697 -77.76506 27214 ft 305 kts 131°
2026-04-20 13:40 38.10290 -77.74109 25247 ft 371 kts 148°
2026-04-20 13:41 38.07555 -77.71548 25755 ft 335 kts 171°
2026-04-20 13:41 38.06195 -77.70844 26486 ft 302 kts 170°
2026-04-20 13:41 38.04407 -77.69420 26742 ft 311 kts 159°
2026-04-20 13:41 38.02440 -77.68033 25346 ft 348 kts 178°
2026-04-20 13:42 38.00035 -77.67715 23843 ft 367 kts 200°
2026-04-20 13:42 37.96592 -77.71837 18949 ft 366 kts 260°
2026-04-20 13:42 37.95992 -77.74882 18331 ft 333 kts 262°
2026-04-20 13:43 37.95456 -77.77819 16163 ft 346 kts 265°
2026-04-20 13:43 37.95104 -77.80756 14047 ft 343 kts 266°
2026-04-20 13:43 37.94908 -77.83889 12073 ft 354 kts 271°
2026-04-20 13:43 37.94973 -77.86970 9714 ft 362 kts 275°
2026-04-20 13:44 37.95207 -77.90089 7750 ft 359 kts 277°
2026-04-20 13:44 37.95463 -77.93314 5908 ft 366 kts 275°
2026-04-20 13:44 37.95623 -77.96165 6981 ft 288 kts 272°
2026-04-20 13:44 37.95664 -77.98511 6975 ft 254 kts 272°
2026-04-20 13:45 37.95668 -78.00699 6223 ft 244 kts 264°
2026-04-20 13:45 37.95637 -78.02681 6385 ft 216 kts 274°
2026-04-20 13:45 37.95720 -78.04564 6050 ft 211 kts 275°
2026-04-20 13:45 37.95780 -78.06476 5472 ft 214 kts 270°
2026-04-20 13:46 37.95907 -78.08486 3998 ft 256 kts 291°
2026-04-20 13:46 37.96753 -78.10358 3670 ft 245 kts 288°
2026-04-20 13:46 37.97138 -78.12649 1600 ft 296 kts 272°
2026-04-20 13:46 37.97000 -78.15083 431 ft 203 kts 270°
2026-04-20 13:47 37.97049 -78.15978 464 ft 5 kts 295°
2026-04-20 13:47 37.97048 -78.15978 464 ft 0 kts 292°